Time,TemperatureF,DewpointF,PressureIn,WindDirection,WindDirectionDegrees,WindSpeedMPH,WindSpeedGustMPH,Humidity,HourlyPrecipIn,Conditions,Clouds,dailyrainin,SoftwareType,DateUTC
2013-11-19 00:00:00,69.6,67.8,29.76,WSW,248,1.1,1.6,94,0.00,,---,0.00,VWS V14.01,2013-11-19 05:00:00,
2013-11-19 00:05:00,69.6,67.5,29.76,SW,225,0.0,1.3,93,0.00,,---,0.00,VWS V14.01,2013-11-19 05:05:00,
2013-11-19 00:10:00,69.6,67.5,29.76,SW,225,0.0,1.6,93,0.00,,---,0.00,VWS V14.01,2013-11-19 05:10:00,
2013-11-19 00:15:00,69.8,67.7,29.76,West,270,1.3,2.0,93,0.00,,---,0.00,VWS V14.01,2013-11-19 05:15:00,
2013-11-19 00:20:00,69.8,67.7,29.76,West,270,0.0,1.3,93,0.00,,---,0.00,VWS V14.01,2013-11-19 05:20:00,
2013-11-19 00:25:00,69.8,67.7,29.76,West,270,0.0,0.9,93,0.00,,---,0.00,VWS V14.01,2013-11-19 05:25:00,
2013-11-19 00:30:00,69.8,67.7,29.76,WSW,248,0.0,1.3,93,0.00,,---,0.00,VWS V14.01,2013-11-19 05:30:00,
2013-11-19 00:35:00,70.0,67.9,29.76,WSW,248,0.0,2.2,93,0.00,,---,0.00,VWS V14.01,2013-11-19 05:35:00,
2013-11-19 00:40:00,70.0,67.9,29.76,WSW,248,1.3,1.3,93,0.00,,---,0.00,VWS V14.01,2013-11-19 05:40:00,
2013-11-19 00:45:00,70.0,67.9,29.76,West,270,1.6,1.6,93,0.00,,---,0.00,VWS V14.01,2013-11-19 05:45:00,
2013-11-19 00:50:00,70.0,67.9,29.76,West,270,0.0,1.6,93,0.00,,---,0.00,VWS V14.01,2013-11-19 05:50:00,
2013-11-19 00:55:00,70.0,67.9,29.76,NW,315,1.1,1.1,93,0.00,,---,0.00,VWS V14.01,2013-11-19 05:55:00,
2013-11-19 01:00:00,70.0,68.2,29.76,WNW,292,0.9,0.9,94,0.00,,---,0.00,VWS V14.01,2013-11-19 06:00:00,
2013-11-19 01:05:00,69.8,68.0,29.76,West,270,1.1,1.1,94,0.00,,---,0.00,VWS V14.01,2013-11-19 06:05:00,
2013-11-19 01:10:00,69.8,68.0,29.76,WSW,248,0.0,1.3,94,0.00,,---,0.00,VWS V14.01,2013-11-19 06:10:00,
2013-11-19 01:15:00,69.8,68.0,29.76,West,270,0.0,0.0,94,0.00,,---,0.00,VWS V14.01,2013-11-19 06:15:00,
2013-11-19 01:20:00,69.8,68.0,29.76,NE,45,0.0,0.0,94,0.00,,---,0.00,VWS V14.01,2013-11-19 06:20:00,
2013-11-19 01:25:00,69.8,68.0,29.76,NNW,338,0.9,0.9,94,0.00,,---,0.00,VWS V14.01,2013-11-19 06:25:00,
2013-11-19 01:30:00,69.8,68.0,29.76,NW,315,2.0,2.0,94,0.00,,---,0.00,VWS V14.01,2013-11-19 06:30:00,
2013-11-19 01:35:00,69.8,68.0,29.76,West,270,1.3,1.3,94,0.00,,---,0.00,VWS V14.01,2013-11-19 06:35:00,
2013-11-19 01:40:00,69.8,68.0,29.74,West,270,1.1,1.1,94,0.00,,---,0.00,VWS V14.01,2013-11-19 06:40:00,
2013-11-19 01:45:00,69.8,68.0,29.74,West,270,0.0,1.1,94,0.00,,---,0.00,VWS V14.01,2013-11-19 06:45:00,
2013-11-19 01:46:00,69.8,68.0,29.74,WNW,292,2.0,2.0,94,0.00,,---,0.00,VWS V14.01,2013-11-19 06:46:00,
2013-11-19 01:50:00,69.8,68.0,29.74,NW,315,1.3,2.0,94,0.00,,---,0.00,VWS V14.01,2013-11-19 06:50:00,
2013-11-19 01:51:00,69.8,68.0,29.74,NW,315,1.3,1.3,94,0.00,,---,0.00,VWS V14.01,2013-11-19 06:51:00,
2013-11-19 01:55:00,69.8,68.0,29.74,NW,315,1.3,2.0,94,0.00,,---,0.00,VWS V14.01,2013-11-19 06:55:00,
2013-11-19 01:56:00,69.8,68.0,29.74,NW,315,1.3,1.3,94,0.00,,---,0.00,VWS V14.01,2013-11-19 06:56:00,
2013-11-19 02:00:00,69.8,68.0,29.74,West,270,1.1,1.3,94,0.00,,---,0.00,VWS V14.01,2013-11-19 07:00:00,
2013-11-19 02:01:00,69.6,67.8,29.74,East,90,1.1,1.1,94,0.00,,---,0.00,VWS V14.01,2013-11-19 07:01:00,
2013-11-19 02:05:00,69.6,67.8,29.74,WNW,292,0.0,2.7,94,0.00,,---,0.00,VWS V14.01,2013-11-19 07:05:00,
2013-11-19 02:06:00,69.6,67.8,29.74,WNW,292,0.0,0.0,94,0.00,,---,0.00,VWS V14.01,2013-11-19 07:06:00,
2013-11-19 02:10:00,69.6,67.8,29.74,WSW,248,1.3,1.3,94,0.00,,---,0.00,VWS V14.01,2013-11-19 07:10:00,
2013-11-19 02:11:00,69.6,67.8,29.74,WSW,248,0.0,1.3,94,0.00,,---,0.00,VWS V14.01,2013-11-19 07:11:00,
2013-11-19 02:15:00,69.6,67.8,29.74,WNW,292,1.6,2.7,94,0.00,,---,0.00,VWS V14.01,2013-11-19 07:15:00,
2013-11-19 02:16:00,69.6,67.8,29.74,WNW,292,1.6,1.6,94,0.00,,---,0.00,VWS V14.01,2013-11-19 07:16:00,
2013-11-19 02:20:00,69.6,67.8,29.74,WNW,292,2.0,2.0,94,0.00,,---,0.00,VWS V14.01,2013-11-19 07:20:00,
2013-11-19 02:21:00,69.6,67.8,29.74,West,270,1.1,2.0,94,0.00,,---,0.00,VWS V14.01,2013-11-19 07:21:00,
2013-11-19 02:25:00,69.4,67.6,29.74,WNW,292,0.0,2.0,94,0.00,,---,0.00,VWS V14.01,2013-11-19 07:25:00,
2013-11-19 02:26:00,69.4,67.6,29.74,WNW,292,0.0,0.0,94,0.00,,---,0.00,VWS V14.01,2013-11-19 07:26:00,
2013-11-19 02:30:00,69.4,67.9,29.74,SW,225,0.9,2.9,95,0.00,,---,0.00,VWS V14.01,2013-11-19 07:30:00,
2013-11-19 02:31:00,69.4,67.9,29.74,SW,225,0.9,0.9,95,0.00,,---,0.00,VWS V14.01,2013-11-19 07:31:00,
2013-11-19 02:35:00,69.4,67.9,29.74,WNW,292,1.3,2.0,95,0.00,,---,0.00,VWS V14.01,2013-11-19 07:35:00,
2013-11-19 02:36:00,69.4,67.9,29.74,WNW,292,1.3,1.3,95,0.00,,---,0.00,VWS V14.01,2013-11-19 07:36:00,
2013-11-19 02:40:00,69.4,67.9,29.74,WNW,292,1.3,1.6,95,0.00,,---,0.00,VWS V14.01,2013-11-19 07:40:00,
2013-11-19 02:41:00,69.4,67.9,29.74,SW,225,0.0,1.3,95,0.00,,---,0.00,VWS V14.01,2013-11-19 07:41:00,
2013-11-19 02:45:00,69.4,67.9,29.74,SW,225,0.0,1.3,95,0.00,,---,0.00,VWS V14.01,2013-11-19 07:45:00,
2013-11-19 02:46:00,69.4,67.9,29.74,SW,225,0.0,0.0,95,0.00,,---,0.00,VWS V14.01,2013-11-19 07:46:00,
2013-11-19 02:50:00,69.4,67.9,29.74,NW,315,0.0,1.3,95,0.00,,---,0.00,VWS V14.01,2013-11-19 07:50:00,
2013-11-19 02:51:00,69.4,67.9,29.74,NW,315,0.0,0.0,95,0.00,,---,0.00,VWS V14.01,2013-11-19 07:51:00,
2013-11-19 02:55:00,69.4,67.9,29.74,SW,225,0.0,0.9,95,0.00,,---,0.00,VWS V14.01,2013-11-19 07:55:00,
2013-11-19 02:56:00,69.4,67.9,29.74,SW,225,0.0,0.0,95,0.00,,---,0.00,VWS V14.01,2013-11-19 07:56:00,
2013-11-19 03:00:00,69.3,67.8,29.74,West,270,1.1,2.0,95,0.00,,---,0.00,VWS V14.01,2013-11-19 08:00:00,
2013-11-19 03:01:00,69.3,67.8,29.74,WSW,248,1.3,1.3,95,0.00,,---,0.00,VWS V14.01,2013-11-19 08:01:00,
2013-11-19 03:05:00,69.3,67.8,29.74,WSW,248,0.0,1.3,95,0.00,,---,0.00,VWS V14.01,2013-11-19 08:05:00,
2013-11-19 03:06:00,69.3,67.8,29.74,WSW,248,0.0,0.0,95,0.00,,---,0.00,VWS V14.01,2013-11-19 08:06:00,
2013-11-19 03:10:00,69.3,67.8,29.74,NNW,338,2.2,2.2,95,0.00,,---,0.00,VWS V14.01,2013-11-19 08:10:00,
2013-11-19 03:11:00,69.3,67.8,29.74,NNW,338,2.2,2.2,95,0.00,,---,0.00,VWS V14.01,2013-11-19 08:11:00,
2013-11-19 03:15:00,69.3,67.8,29.74,NW,315,0.0,2.2,95,0.00,,---,0.00,VWS V14.01,2013-11-19 08:15:00,
2013-11-19 03:16:00,69.3,67.8,29.74,NW,315,0.0,0.0,95,0.00,,---,0.00,VWS V14.01,2013-11-19 08:16:00,
2013-11-19 03:20:00,69.3,67.8,29.74,WNW,292,0.0,0.0,95,0.00,,---,0.00,VWS V14.01,2013-11-19 08:20:00,
2013-11-19 03:21:00,69.3,67.8,29.74,WNW,292,0.0,0.0,95,0.00,,---,0.00,VWS V14.01,2013-11-19 08:21:00,
2013-11-19 03:25:00,69.3,67.8,29.74,NNE,22,0.0,1.1,95,0.00,,---,0.00,VWS V14.01,2013-11-19 08:25:00,
2013-11-19 03:26:00,69.3,67.8,29.74,NNE,22,0.0,0.0,95,0.00,,---,0.00,VWS V14.01,2013-11-19 08:26:00,
2013-11-19 03:30:00,69.3,67.8,29.74,NW,315,1.6,1.6,95,0.00,,---,0.00,VWS V14.01,2013-11-19 08:30:00,
2013-11-19 03:31:00,69.3,67.8,29.74,NW,315,1.3,1.6,95,0.00,,---,0.00,VWS V14.01,2013-11-19 08:31:00,
2013-11-19 03:35:00,69.3,67.8,29.74,NNW,338,1.6,1.6,95,0.00,,---,0.00,VWS V14.01,2013-11-19 08:35:00,
2013-11-19 03:36:00,69.3,67.8,29.74,NNW,338,1.6,1.6,95,0.00,,---,0.00,VWS V14.01,2013-11-19 08:36:00,
2013-11-19 03:40:00,69.1,67.6,29.74,NW,315,1.1,1.6,95,0.00,,---,0.00,VWS V14.01,2013-11-19 08:40:00,
2013-11-19 03:41:00,69.1,67.6,29.74,NW,315,0.0,1.1,95,0.00,,---,0.00,VWS V14.01,2013-11-19 08:41:00,
2013-11-19 03:45:00,68.9,67.4,29.74,NNW,338,0.9,1.1,95,0.00,,---,0.00,VWS V14.01,2013-11-19 08:45:00,
2013-11-19 03:46:00,68.9,67.4,29.74,NNW,338,0.0,0.9,95,0.00,,---,0.00,VWS V14.01,2013-11-19 08:46:00,
2013-11-19 03:50:00,68.9,67.4,29.74,NW,315,1.3,1.3,95,0.00,,---,0.00,VWS V14.01,2013-11-19 08:50:00,
2013-11-19 03:51:00,68.9,67.4,29.74,NW,315,0.9,1.3,95,0.00,,---,0.00,VWS V14.01,2013-11-19 08:51:00,
2013-11-19 03:55:00,68.9,67.4,29.74,NW,315,0.0,1.3,95,0.00,,---,0.00,VWS V14.01,2013-11-19 08:55:00,
2013-11-19 03:56:00,68.9,67.4,29.74,NW,315,0.0,0.0,95,0.00,,---,0.00,VWS V14.01,2013-11-19 08:56:00,
2013-11-19 04:00:00,68.9,67.4,29.74,NW,315,0.9,1.6,95,0.00,,---,0.00,VWS V14.01,2013-11-19 09:00:00,
2013-11-19 04:01:00,68.9,67.4,29.74,NW,315,0.9,0.9,95,0.00,,---,0.00,VWS V14.01,2013-11-19 09:01:00,
2013-11-19 04:05:00,68.9,67.4,29.74,NW,315,1.3,1.6,95,0.00,,---,0.00,VWS V14.01,2013-11-19 09:05:00,
2013-11-19 04:06:00,68.9,67.4,29.74,NW,315,2.0,2.0,95,0.00,,---,0.00,VWS V14.01,2013-11-19 09:06:00,
2013-11-19 04:10:00,68.9,67.4,29.74,NW,315,1.1,2.0,95,0.00,,---,0.00,VWS V14.01,2013-11-19 09:10:00,
2013-11-19 04:11:00,68.9,67.4,29.74,NW,315,1.1,1.1,95,0.00,,---,0.00,VWS V14.01,2013-11-19 09:11:00,
2013-11-19 04:15:00,69.1,67.6,29.74,West,270,1.1,1.3,95,0.00,,---,0.00,VWS V14.01,2013-11-19 09:15:00,
2013-11-19 04:16:00,69.1,67.6,29.74,West,270,1.1,1.1,95,0.00,,---,0.00,VWS V14.01,2013-11-19 09:16:00,
2013-11-19 04:20:00,68.9,67.4,29.74,West,270,0.0,1.3,95,0.00,,---,0.00,VWS V14.01,2013-11-19 09:20:00,
2013-11-19 04:21:00,68.9,67.4,29.74,West,270,0.0,0.0,95,0.00,,---,0.00,VWS V14.01,2013-11-19 09:21:00,
2013-11-19 04:25:00,68.7,67.2,29.74,WNW,292,0.0,1.1,95,0.00,,---,0.00,VWS V14.01,2013-11-19 09:25:00,
2013-11-19 04:26:00,68.7,67.2,29.74,WNW,292,0.0,0.0,95,0.00,,---,0.00,VWS V14.01,2013-11-19 09:26:00,
2013-11-19 04:30:00,68.7,67.2,29.74,WNW,292,0.9,1.1,95,0.00,,---,0.00,VWS V14.01,2013-11-19 09:30:00,
2013-11-19 04:31:00,68.7,67.2,29.74,NW,315,0.9,0.9,95,0.00,,---,0.00,VWS V14.01,2013-11-19 09:31:00,
2013-11-19 04:35:00,68.9,67.4,29.74,WNW,292,0.0,1.6,95,0.00,,---,0.00,VWS V14.01,2013-11-19 09:35:00,
2013-11-19 04:36:00,68.9,67.4,29.74,WNW,292,0.0,0.0,95,0.00,,---,0.00,VWS V14.01,2013-11-19 09:36:00,
2013-11-19 04:40:00,68.9,67.4,29.74,NW,315,1.3,1.6,95,0.00,,---,0.00,VWS V14.01,2013-11-19 09:40:00,
2013-11-19 04:41:00,68.9,67.4,29.74,NW,315,1.1,1.3,95,0.00,,---,0.00,VWS V14.01,2013-11-19 09:41:00,
2013-11-19 04:45:00,68.9,67.4,29.74,WNW,292,1.3,2.0,95,0.00,,---,0.00,VWS V14.01,2013-11-19 09:45:00,
2013-11-19 04:46:00,68.9,67.4,29.74,WNW,292,1.3,1.3,95,0.00,,---,0.00,VWS V14.01,2013-11-19 09:46:00,
2013-11-19 04:50:00,68.9,67.4,29.74,WNW,292,0.9,1.6,95,0.00,,---,0.00,VWS V14.01,2013-11-19 09:50:00,
2013-11-19 04:51:00,68.9,67.4,29.74,NW,315,1.3,1.3,95,0.00,,---,0.00,VWS V14.01,2013-11-19 09:51:00,
2013-11-19 04:55:00,69.1,67.9,29.74,NW,315,2.0,2.5,96,0.00,,---,0.00,VWS V14.01,2013-11-19 09:55:00,
2013-11-19 04:56:00,69.1,67.9,29.74,WNW,292,0.0,2.0,96,0.00,,---,0.00,VWS V14.01,2013-11-19 09:56:00,
2013-11-19 05:00:00,69.1,67.9,29.74,WNW,292,1.3,2.0,96,0.00,,---,0.00,VWS V14.01,2013-11-19 10:00:00,
2013-11-19 05:01:00,69.1,67.9,29.74,WNW,292,1.3,2.0,96,0.00,,---,0.00,VWS V14.01,2013-11-19 10:01:00,
2013-11-19 05:05:00,69.1,67.9,29.74,WNW,292,0.0,2.0,96,0.00,,---,0.00,VWS V14.01,2013-11-19 10:05:00,
2013-11-19 05:06:00,69.1,67.9,29.74,WNW,292,0.9,0.9,96,0.00,,---,0.00,VWS V14.01,2013-11-19 10:06:00,
2013-11-19 05:10:00,69.1,67.9,29.74,WSW,248,0.9,2.0,96,0.00,,---,0.00,VWS V14.01,2013-11-19 10:10:00,
2013-11-19 05:11:00,69.1,67.9,29.74,WSW,248,1.1,1.1,96,0.00,,---,0.00,VWS V14.01,2013-11-19 10:11:00,
2013-11-19 05:15:00,69.1,67.9,29.74,NW,315,0.0,1.1,96,0.00,,---,0.00,VWS V14.01,2013-11-19 10:15:00,
2013-11-19 05:16:00,69.1,67.9,29.74,NW,315,0.0,0.0,96,0.00,,---,0.00,VWS V14.01,2013-11-19 10:16:00,
2013-11-19 05:20:00,69.1,67.9,29.74,WSW,248,0.0,2.0,96,0.00,,---,0.00,VWS V14.01,2013-11-19 10:20:00,
2013-11-19 05:21:00,69.1,67.9,29.74,West,270,0.0,0.0,96,0.00,,---,0.00,VWS V14.01,2013-11-19 10:21:00,
2013-11-19 05:25:00,69.3,68.1,29.74,NW,315,0.0,1.3,96,0.00,,---,0.00,VWS V14.01,2013-11-19 10:25:00,
2013-11-19 05:26:00,69.3,68.1,29.74,NW,315,1.3,1.3,96,0.00,,---,0.00,VWS V14.01,2013-11-19 10:26:00,
2013-11-19 05:30:00,69.3,68.1,29.74,WNW,292,0.9,1.3,96,0.00,,---,0.00,VWS V14.01,2013-11-19 10:30:00,
2013-11-19 05:31:00,69.3,68.1,29.74,NW,315,1.3,1.3,96,0.00,,---,0.00,VWS V14.01,2013-11-19 10:31:00,
2013-11-19 05:35:00,69.3,68.1,29.74,NNW,338,0.9,1.3,96,0.00,,---,0.00,VWS V14.01,2013-11-19 10:35:00,
2013-11-19 05:36:00,69.3,68.1,29.74,NNW,338,0.0,0.9,96,0.00,,---,0.00,VWS V14.01,2013-11-19 10:36:00,
2013-11-19 05:40:00,69.3,68.1,29.74,WNW,292,0.0,0.9,96,0.00,,---,0.00,VWS V14.01,2013-11-19 10:40:00,
2013-11-19 05:41:00,69.3,68.1,29.74,WNW,292,0.0,0.0,96,0.00,,---,0.00,VWS V14.01,2013-11-19 10:41:00,
2013-11-19 05:45:00,69.3,68.1,29.74,West,270,1.6,1.6,96,0.00,,---,0.00,VWS V14.01,2013-11-19 10:45:00,
2013-11-19 05:46:00,69.3,68.1,29.74,West,270,0.9,1.6,96,0.00,,---,0.00,VWS V14.01,2013-11-19 10:46:00,
2013-11-19 05:50:00,69.1,67.9,29.74,West,270,0.9,1.6,96,0.00,,---,0.00,VWS V14.01,2013-11-19 10:50:00,
2013-11-19 05:51:00,69.1,67.9,29.74,West,270,0.0,0.9,96,0.00,,---,0.00,VWS V14.01,2013-11-19 10:51:00,
2013-11-19 05:55:00,68.9,67.7,29.74,West,270,0.0,0.9,96,0.00,,---,0.00,VWS V14.01,2013-11-19 10:55:00,
2013-11-19 05:56:00,68.7,67.5,29.74,West,270,0.0,0.0,96,0.00,,---,0.00,VWS V14.01,2013-11-19 10:56:00,
2013-11-19 06:00:00,68.5,67.1,29.74,West,270,0.0,0.0,95,0.00,,---,0.00,VWS V14.01,2013-11-19 11:00:00,
2013-11-19 06:01:00,68.5,67.1,29.74,West,270,0.0,0.0,95,0.00,,---,0.00,VWS V14.01,2013-11-19 11:01:00,
2013-11-19 06:05:00,68.4,66.9,29.74,West,270,0.0,0.0,95,0.00,,---,0.00,VWS V14.01,2013-11-19 11:05:00,
2013-11-19 06:06:00,68.4,66.9,29.74,West,270,0.0,0.0,95,0.00,,---,0.00,VWS V14.01,2013-11-19 11:06:00,
2013-11-19 06:10:00,68.2,66.7,29.74,West,270,0.0,0.0,95,0.00,,---,0.00,VWS V14.01,2013-11-19 11:10:00,
2013-11-19 06:11:00,68.2,66.7,29.74,West,270,0.0,0.0,95,0.00,,---,0.00,VWS V14.01,2013-11-19 11:11:00,
2013-11-19 06:15:00,68.4,66.9,29.74,West,270,0.0,0.0,95,0.00,,---,0.00,VWS V14.01,2013-11-19 11:15:00,
2013-11-19 06:16:00,68.4,66.9,29.74,West,270,0.0,0.0,95,0.00,,---,0.00,VWS V14.01,2013-11-19 11:16:00,
2013-11-19 06:20:00,68.5,67.1,29.74,West,270,0.0,0.0,95,0.00,,---,0.00,VWS V14.01,2013-11-19 11:20:00,
2013-11-19 06:21:00,68.5,67.1,29.74,West,270,0.0,0.0,95,0.00,,---,0.00,VWS V14.01,2013-11-19 11:21:00,
2013-11-19 06:25:00,68.7,67.5,29.74,West,270,0.0,0.0,96,0.00,,---,0.00,VWS V14.01,2013-11-19 11:25:00,
2013-11-19 06:26:00,68.7,67.5,29.74,West,270,0.0,0.0,96,0.00,,---,0.00,VWS V14.01,2013-11-19 11:26:00,
2013-11-19 06:30:00,68.9,67.7,29.74,West,270,0.0,0.0,96,0.00,,---,0.00,VWS V14.01,2013-11-19 11:30:00,
2013-11-19 06:31:00,68.9,67.7,29.74,West,270,0.0,0.0,96,0.00,,---,0.00,VWS V14.01,2013-11-19 11:31:00,
2013-11-19 06:35:00,68.9,67.7,29.74,West,270,0.0,0.0,96,0.00,,---,0.00,VWS V14.01,2013-11-19 11:35:00,
2013-11-19 06:36:00,68.9,67.7,29.74,West,270,0.0,0.0,96,0.00,,---,0.00,VWS V14.01,2013-11-19 11:36:00,
2013-11-19 06:40:00,68.9,67.7,29.76,WNW,292,0.0,0.0,96,0.00,,---,0.00,VWS V14.01,2013-11-19 11:40:00,
2013-11-19 06:41:00,68.9,67.7,29.76,WNW,292,1.1,1.1,96,0.00,,---,0.00,VWS V14.01,2013-11-19 11:41:00,
2013-11-19 06:45:00,69.1,67.9,29.76,NW,315,1.1,1.6,96,0.00,,---,0.00,VWS V14.01,2013-11-19 11:45:00,
2013-11-19 06:46:00,69.1,67.9,29.76,NNW,338,0.9,1.1,96,0.00,,---,0.00,VWS V14.01,2013-11-19 11:46:00,
2013-11-19 06:50:00,69.1,67.9,29.76,NNW,338,2.7,2.9,96,0.00,,---,0.00,VWS V14.01,2013-11-19 11:50:00,
2013-11-19 06:51:00,69.1,67.9,29.76,West,270,2.5,2.7,96,0.00,,---,0.00,VWS V14.01,2013-11-19 11:51:00,
2013-11-19 06:55:00,69.1,67.9,29.74,NNW,338,2.0,3.4,96,0.00,,---,0.00,VWS V14.01,2013-11-19 11:55:00,
2013-11-19 06:56:00,68.9,67.7,29.74,WNW,292,1.1,2.5,96,0.00,,---,0.00,VWS V14.01,2013-11-19 11:56:00,
2013-11-19 07:00:00,68.7,67.5,29.74,East,90,1.3,3.6,96,0.00,,---,0.00,VWS V14.01,2013-11-19 12:00:00,
2013-11-19 07:01:00,68.7,67.5,29.74,ENE,68,0.9,2.0,96,0.00,,---,0.00,VWS V14.01,2013-11-19 12:01:00,
2013-11-19 07:05:00,68.2,67.0,29.74,NNE,22,1.6,3.8,96,0.00,,---,0.00,VWS V14.01,2013-11-19 12:05:00,
2013-11-19 07:06:00,68.2,66.7,29.74,NNE,22,1.6,1.6,95,0.00,,---,0.00,VWS V14.01,2013-11-19 12:06:00,
2013-11-19 07:10:00,67.6,66.2,29.76,WNW,292,2.0,3.8,95,0.00,,---,0.00,VWS V14.01,2013-11-19 12:10:00,
2013-11-19 07:11:00,67.6,66.2,29.76,WNW,292,2.0,2.0,95,0.00,,---,0.00,VWS V14.01,2013-11-19 12:11:00,
2013-11-19 07:15:00,67.5,66.0,29.76,NW,315,1.1,2.7,95,0.00,,---,0.00,VWS V14.01,2013-11-19 12:15:00,
2013-11-19 07:16:00,67.3,65.5,29.76,NW,315,1.1,1.1,94,0.00,,---,0.00,VWS V14.01,2013-11-19 12:16:00,
2013-11-19 07:20:00,67.3,65.5,29.76,SW,225,0.0,2.0,94,0.00,,---,0.00,VWS V14.01,2013-11-19 12:20:00,
2013-11-19 07:21:00,67.3,65.5,29.76,NNW,338,2.9,2.9,94,0.00,,---,0.00,VWS V14.01,2013-11-19 12:21:00,
2013-11-19 07:25:00,66.7,65.0,29.76,East,90,0.0,2.9,94,0.00,,---,0.00,VWS V14.01,2013-11-19 12:25:00,
2013-11-19 07:26:00,66.7,65.0,29.76,NNE,22,1.6,3.6,94,0.00,,---,0.00,VWS V14.01,2013-11-19 12:26:00,
2013-11-19 07:30:00,66.4,64.0,29.76,East,90,0.9,3.6,92,0.00,,---,0.00,VWS V14.01,2013-11-19 12:30:00,
2013-11-19 07:31:00,66.4,64.0,29.76,East,90,0.9,0.9,92,0.00,,---,0.00,VWS V14.01,2013-11-19 12:31:00,
2013-11-19 07:35:00,66.2,63.5,29.76,ESE,112,0.0,1.6,91,0.00,,---,0.00,VWS V14.01,2013-11-19 12:35:00,
2013-11-19 07:36:00,66.2,63.5,29.76,East,90,1.1,1.1,91,0.00,,---,0.00,VWS V14.01,2013-11-19 12:36:00,
2013-11-19 07:40:00,66.0,63.3,29.80,East,90,1.3,1.6,91,0.00,,---,0.00,VWS V14.01,2013-11-19 12:40:00,
2013-11-19 07:41:00,66.0,63.3,29.79,East,90,0.0,1.3,91,0.00,,---,0.00,VWS V14.01,2013-11-19 12:41:00,
2013-11-19 07:45:00,65.8,62.8,29.80,WNW,292,0.0,2.5,90,0.00,,---,0.00,VWS V14.01,2013-11-19 12:45:00,
2013-11-19 07:46:00,65.8,62.8,29.79,West,270,0.0,0.0,90,0.00,,---,0.00,VWS V14.01,2013-11-19 12:46:00,
2013-11-19 07:50:00,65.5,62.2,29.80,West,270,0.0,1.1,89,0.00,,---,0.00,VWS V14.01,2013-11-19 12:50:00,
2013-11-19 07:51:00,65.5,62.2,29.79,ENE,68,1.6,1.6,89,0.00,,---,0.00,VWS V14.01,2013-11-19 12:51:00,
2013-11-19 07:55:00,65.5,61.5,29.80,NNW,338,1.3,2.2,87,0.00,,---,0.00,VWS V14.01,2013-11-19 12:55:00,
2013-11-19 07:56:00,65.3,61.0,29.79,NNW,338,2.0,2.0,86,0.00,,---,0.00,VWS V14.01,2013-11-19 12:56:00,
2013-11-19 08:00:00,65.3,59.7,29.80,West,270,0.0,2.2,82,0.00,,---,0.00,VWS V14.01,2013-11-19 13:00:00,
2013-11-19 08:01:00,65.3,59.7,29.79,NW,315,1.1,1.6,82,0.00,,---,0.00,VWS V14.01,2013-11-19 13:01:00,
2013-11-19 08:05:00,65.1,58.8,29.80,WNW,292,2.0,2.0,80,0.00,,---,0.00,VWS V14.01,2013-11-19 13:05:00,
2013-11-19 08:06:00,64.9,58.3,29.79,NNW,338,0.0,2.0,79,0.00,,---,0.00,VWS V14.01,2013-11-19 13:06:00,
2013-11-19 08:10:00,64.9,56.8,29.76,West,270,2.0,2.0,75,0.00,,---,0.00,VWS V14.01,2013-11-19 13:10:00,
2013-11-19 08:11:00,65.1,57.4,29.76,WSW,248,0.0,2.0,76,0.00,,---,0.00,VWS V14.01,2013-11-19 13:11:00,
2013-11-19 08:15:00,65.1,57.0,29.76,WNW,292,0.0,2.0,75,0.00,,---,0.00,VWS V14.01,2013-11-19 13:15:00,
2013-11-19 08:16:00,64.9,56.1,29.76,East,90,0.0,0.0,73,0.00,,---,0.00,VWS V14.01,2013-11-19 13:16:00,
2013-11-19 08:20:00,65.1,56.3,29.76,West,270,1.1,2.7,73,0.00,,---,0.00,VWS V14.01,2013-11-19 13:20:00,
2013-11-19 08:21:00,65.1,56.3,29.76,West,270,1.3,2.0,73,0.00,,---,0.00,VWS V14.01,2013-11-19 13:21:00,
2013-11-19 08:25:00,65.3,55.7,29.80,East,90,0.0,2.0,71,0.00,,---,0.00,VWS V14.01,2013-11-19 13:25:00,
2013-11-19 08:26:00,65.5,56.2,29.79,West,270,0.9,0.9,72,0.00,,---,0.00,VWS V14.01,2013-11-19 13:26:00,
2013-11-19 08:30:00,65.5,55.5,29.80,East,90,0.0,2.2,70,0.00,,---,0.00,VWS V14.01,2013-11-19 13:30:00,
2013-11-19 08:31:00,65.7,55.6,29.79,East,90,0.0,0.0,70,0.00,,---,0.00,VWS V14.01,2013-11-19 13:31:00,
2013-11-19 08:35:00,65.8,55.4,29.80,West,270,0.0,0.0,69,0.00,,---,0.00,VWS V14.01,2013-11-19 13:35:00,
2013-11-19 08:36:00,66.0,55.6,29.79,West,270,0.0,0.0,69,0.00,,---,0.00,VWS V14.01,2013-11-19 13:36:00,
2013-11-19 08:40:00,66.2,55.3,29.80,WSW,248,0.0,1.1,68,0.00,,---,0.00,VWS V14.01,2013-11-19 13:40:00,
2013-11-19 08:41:00,66.4,55.1,29.79,WSW,248,0.0,0.0,67,0.00,,---,0.00,VWS V14.01,2013-11-19 13:41:00,
2013-11-19 08:45:00,66.2,54.5,29.80,West,270,0.0,1.1,66,0.00,,---,0.00,VWS V14.01,2013-11-19 13:45:00,
2013-11-19 08:46:00,66.2,54.5,29.79,SW,225,0.9,0.9,66,0.00,,---,0.00,VWS V14.01,2013-11-19 13:46:00,
2013-11-19 08:50:00,66.0,53.1,29.80,NNE,22,0.0,1.3,63,0.00,,---,0.00,VWS V14.01,2013-11-19 13:50:00,
2013-11-19 08:51:00,66.2,53.2,29.79,East,90,0.0,0.0,63,0.00,,---,0.00,VWS V14.01,2013-11-19 13:51:00,
2013-11-19 08:55:00,66.2,52.8,29.80,SE,135,0.9,0.9,62,0.00,,---,0.00,VWS V14.01,2013-11-19 13:55:00,
2013-11-19 08:56:00,66.0,52.6,29.79,SE,135,0.0,0.9,62,0.00,,---,0.00,VWS V14.01,2013-11-19 13:56:00,
2013-11-19 09:00:00,66.2,52.4,29.80,NNE,22,0.0,0.9,61,0.00,,---,0.00,VWS V14.01,2013-11-19 14:00:00,
2013-11-19 09:01:00,66.2,52.8,29.79,NE,45,0.0,0.0,62,0.00,,---,0.00,VWS V14.01,2013-11-19 14:01:00,
2013-11-19 09:05:00,66.4,53.0,29.80,East,90,0.0,0.0,62,0.00,,---,0.00,VWS V14.01,2013-11-19 14:05:00,
2013-11-19 09:06:00,66.6,53.2,29.79,East,90,0.0,0.0,62,0.00,,---,0.00,VWS V14.01,2013-11-19 14:06:00,
2013-11-19 09:10:00,66.4,46.7,29.80,NE,45,1.6,3.6,49,0.00,,---,0.00,VWS V14.01,2013-11-19 14:10:00,
2013-11-19 09:12:00,66.6,47.9,29.79,NW,315,0.0,1.6,51,0.00,,---,0.00,VWS V14.01,2013-11-19 14:12:00,
2013-11-19 09:15:00,66.6,45.2,29.80,East,90,2.9,3.4,46,0.00,,---,0.00,VWS V14.01,2013-11-19 14:15:00,
2013-11-19 09:17:00,66.7,45.9,29.79,SE,135,3.6,3.6,47,0.00,,---,0.00,VWS V14.01,2013-11-19 14:17:00,
2013-11-19 09:20:00,66.7,41.0,29.80,East,90,2.9,5.4,39,0.00,,---,0.00,VWS V14.01,2013-11-19 14:20:00,
2013-11-19 09:22:00,66.7,42.3,29.79,ENE,68,1.3,3.8,41,0.00,,---,0.00,VWS V14.01,2013-11-19 14:22:00,
2013-11-19 09:25:00,67.1,40.7,29.80,ENE,68,2.9,4.3,38,0.00,,---,0.00,VWS V14.01,2013-11-19 14:25:00,
2013-11-19 09:27:00,67.5,41.0,29.79,East,90,3.1,3.8,38,0.00,,---,0.00,VWS V14.01,2013-11-19 14:27:00,
2013-11-19 09:30:00,68.0,42.8,29.79,ESE,112,2.2,3.8,40,0.00,,---,0.00,VWS V14.01,2013-11-19 14:30:00,
2013-11-19 09:35:00,67.8,40.6,29.79,North,0,1.3,5.6,37,0.00,,---,0.00,VWS V14.01,2013-11-19 14:35:00,
2013-11-19 09:40:00,67.8,41.3,29.79,NW,315,1.6,4.0,38,0.00,,---,0.00,VWS V14.01,2013-11-19 14:40:00,
2013-11-19 09:45:00,67.6,39.8,29.79,ENE,68,3.4,4.0,36,0.00,,---,0.00,VWS V14.01,2013-11-19 14:45:00,
2013-11-19 09:50:00,67.5,39.6,29.79,ENE,68,3.6,6.9,36,0.00,,---,0.00,VWS V14.01,2013-11-19 14:50:00,
2013-11-19 09:55:00,67.1,38.6,29.82,East,90,4.0,6.5,35,0.00,,---,0.00,VWS V14.01,2013-11-19 14:55:00,
2013-11-19 10:00:00,66.9,38.4,29.82,NNE,22,0.0,4.9,35,0.00,,---,0.00,VWS V14.01,2013-11-19 15:00:00,
2013-11-19 10:05:00,67.3,39.4,29.82,ENE,68,0.0,4.0,36,0.00,,---,0.00,VWS V14.01,2013-11-19 15:05:00,
2013-11-19 10:10:00,67.6,39.8,29.82,East,90,2.5,5.8,36,0.00,,---,0.00,VWS V14.01,2013-11-19 15:10:00,
2013-11-19 10:15:00,68.0,40.1,29.82,East,90,2.5,3.1,36,0.00,,---,0.00,VWS V14.01,2013-11-19 15:15:00,
2013-11-19 10:20:00,68.0,38.6,29.82,East,90,2.2,4.7,34,0.00,,---,0.00,VWS V14.01,2013-11-19 15:20:00,
2013-11-19 10:25:00,68.2,39.5,29.79,East,90,4.0,4.5,35,0.00,,---,0.00,VWS V14.01,2013-11-19 15:25:00,
2013-11-19 10:30:00,68.9,40.2,29.79,East,90,0.9,4.0,35,0.00,,---,0.00,VWS V14.01,2013-11-19 15:30:00,
2013-11-19 10:35:00,69.6,41.5,29.79,ENE,68,0.9,2.2,36,0.00,,---,0.00,VWS V14.01,2013-11-19 15:35:00,
2013-11-19 10:40:00,69.6,40.8,29.82,ENE,68,2.0,3.4,35,0.00,,---,0.00,VWS V14.01,2013-11-19 15:40:00,
2013-11-19 10:45:00,69.1,40.3,29.82,East,90,2.5,3.1,35,0.00,,---,0.00,VWS V14.01,2013-11-19 15:45:00,
2013-11-19 10:50:00,68.9,40.2,29.82,East,90,4.0,4.9,35,0.00,,---,0.00,VWS V14.01,2013-11-19 15:50:00,
2013-11-19 10:55:00,68.5,39.1,29.82,NE,45,2.5,4.3,34,0.00,,---,0.00,VWS V14.01,2013-11-19 15:55:00,
2013-11-19 11:00:00,68.7,39.2,29.82,ENE,68,2.5,4.0,34,0.00,,---,0.00,VWS V14.01,2013-11-19 16:00:00,
2013-11-19 11:05:00,69.4,40.6,29.82,East,90,0.0,2.7,35,0.00,,---,0.00,VWS V14.01,2013-11-19 16:05:00,
2013-11-19 11:10:00,69.8,40.2,29.79,WNW,292,0.0,2.7,34,0.00,,---,0.00,VWS V14.01,2013-11-19 16:10:00,
2013-11-19 11:15:00,69.8,39.4,29.79,East,90,3.4,4.0,33,0.00,,---,0.00,VWS V14.01,2013-11-19 16:15:00,
2013-11-19 11:20:00,69.6,39.3,29.79,ESE,112,3.1,3.4,33,0.00,,---,0.00,VWS V14.01,2013-11-19 16:20:00,
2013-11-19 11:25:00,69.6,40.0,29.79,ENE,68,5.4,5.4,34,0.00,,---,0.00,VWS V14.01,2013-11-19 16:25:00,
2013-11-19 11:30:00,69.6,39.3,29.79,ENE,68,2.5,5.4,33,0.00,,---,0.00,VWS V14.01,2013-11-19 16:30:00,
2013-11-19 11:35:00,70.5,40.8,29.79,ENE,68,1.3,2.5,34,0.00,,---,0.00,VWS V14.01,2013-11-19 16:35:00,
2013-11-19 11:40:00,70.7,41.0,29.79,ENE,68,0.9,1.6,34,0.00,,---,0.00,VWS V14.01,2013-11-19 16:40:00,
2013-11-19 11:45:00,71.2,41.5,29.79,ENE,68,1.6,1.6,34,0.00,,---,0.00,VWS V14.01,2013-11-19 16:45:00,
2013-11-19 11:50:00,71.2,41.5,29.79,ENE,68,0.9,1.6,34,0.00,,---,0.00,VWS V14.01,2013-11-19 16:50:00,
2013-11-19 11:55:00,71.2,41.5,29.79,East,90,1.3,2.0,34,0.00,,---,0.00,VWS V14.01,2013-11-19 16:55:00,
2013-11-19 12:00:00,71.2,41.5,29.79,SE,135,1.3,1.3,34,0.00,,---,0.00,VWS V14.01,2013-11-19 17:00:00,
2013-11-19 12:05:00,71.4,40.8,29.79,ENE,68,1.1,1.3,33,0.00,,---,0.00,VWS V14.01,2013-11-19 17:05:00,
2013-11-19 12:10:00,71.1,40.5,29.79,East,90,3.6,3.6,33,0.00,,---,0.00,VWS V14.01,2013-11-19 17:10:00,
2013-11-19 12:15:00,71.2,40.7,29.79,South,180,0.0,3.6,33,0.00,,---,0.00,VWS V14.01,2013-11-19 17:15:00,
2013-11-19 12:20:00,72.1,41.5,29.79,South,180,0.0,0.0,33,0.00,,---,0.00,VWS V14.01,2013-11-19 17:20:00,
2013-11-19 12:25:00,72.1,41.5,29.79,East,90,2.5,2.5,33,0.00,,---,0.00,VWS V14.01,2013-11-19 17:25:00,
2013-11-19 12:30:00,72.3,41.6,29.79,East,90,1.6,3.4,33,0.00,,---,0.00,VWS V14.01,2013-11-19 17:30:00,
2013-11-19 12:35:00,73.4,41.8,29.79,ENE,68,1.3,2.5,32,0.00,,---,0.00,VWS V14.01,2013-11-19 17:35:00,
2013-11-19 12:40:00,74.3,42.6,29.79,ESE,112,1.1,2.2,32,0.00,,---,0.00,VWS V14.01,2013-11-19 17:40:00,
2013-11-19 12:42:00,74.5,42.7,29.79,NNE,22,1.3,1.3,32,0.00,,---,0.00,VWS V14.01,2013-11-19 17:42:00,
2013-11-19 12:45:00,74.3,42.6,29.80,ENE,68,2.7,2.7,32,0.00,,---,0.00,VWS V14.01,2013-11-19 17:45:00,
2013-11-19 12:47:00,74.5,42.7,29.79,WSW,248,0.9,2.7,32,0.00,,---,0.00,VWS V14.01,2013-11-19 17:47:00,
2013-11-19 12:50:00,74.5,41.9,29.80,East,90,2.7,3.4,31,0.00,,---,0.00,VWS V14.01,2013-11-19 17:50:00,
2013-11-19 12:52:00,74.5,42.7,29.79,East,90,2.0,2.7,32,0.00,,---,0.00,VWS V14.01,2013-11-19 17:52:00,
2013-11-19 12:55:00,74.8,42.2,29.76,East,90,5.8,5.8,31,0.00,,---,0.00,VWS V14.01,2013-11-19 17:55:00,
2013-11-19 12:57:00,74.3,41.7,29.76,East,90,5.4,5.8,31,0.00,,---,0.00,VWS V14.01,2013-11-19 17:57:00,
2013-11-19 13:00:00,74.8,42.2,29.76,East,90,1.1,5.8,31,0.00,,---,0.00,VWS V14.01,2013-11-19 18:00:00,
2013-11-19 13:02:00,75.2,42.5,29.76,East,90,1.3,1.3,31,0.00,,---,0.00,VWS V14.01,2013-11-19 18:02:00,
2013-11-19 13:05:00,75.4,42.7,29.76,ENE,68,0.0,3.8,31,0.00,,---,0.00,VWS V14.01,2013-11-19 18:05:00,
2013-11-19 13:07:00,75.7,43.0,29.76,East,90,2.5,2.5,31,0.00,,---,0.00,VWS V14.01,2013-11-19 18:07:00,
2013-11-19 13:10:00,75.4,41.0,29.76,East,90,2.7,2.7,29,0.00,,---,0.00,VWS V14.01,2013-11-19 18:10:00,
2013-11-19 13:12:00,75.4,41.8,29.76,East,90,2.7,2.7,30,0.00,,---,0.00,VWS V14.01,2013-11-19 18:12:00,
2013-11-19 13:15:00,75.6,42.8,29.76,ENE,68,2.2,2.7,31,0.00,,---,0.00,VWS V14.01,2013-11-19 18:15:00,
2013-11-19 13:17:00,75.6,42.0,29.76,NW,315,3.1,3.1,30,0.00,,---,0.00,VWS V14.01,2013-11-19 18:17:00,
2013-11-19 13:20:00,75.9,43.2,29.76,ENE,68,1.3,3.4,31,0.00,,---,0.00,VWS V14.01,2013-11-19 18:20:00,
2013-11-19 13:22:00,75.9,42.3,29.76,SSE,158,2.7,2.9,30,0.00,,---,0.00,VWS V14.01,2013-11-19 18:22:00,
2013-11-19 13:25:00,75.7,43.0,29.76,NNE,22,1.3,2.9,31,0.00,,---,0.00,VWS V14.01,2013-11-19 18:25:00,
2013-11-19 13:27:00,75.7,43.0,29.76,NNW,338,1.1,1.3,31,0.00,,---,0.00,VWS V14.01,2013-11-19 18:27:00,
2013-11-19 13:30:00,75.9,43.2,29.76,West,270,0.0,2.5,31,0.00,,---,0.00,VWS V14.01,2013-11-19 18:30:00,
2013-11-19 13:32:00,75.9,42.3,29.76,West,270,0.0,0.0,30,0.00,,---,0.00,VWS V14.01,2013-11-19 18:32:00,
2013-11-19 13:35:00,75.6,42.0,29.76,SW,225,2.2,2.7,30,0.00,,---,0.00,VWS V14.01,2013-11-19 18:35:00,
2013-11-19 13:37:00,75.6,42.0,29.76,WSW,248,1.1,2.2,30,0.00,,---,0.00,VWS V14.01,2013-11-19 18:37:00,
2013-11-19 13:40:00,75.2,41.7,29.76,East,90,3.6,3.6,30,0.00,,---,0.00,VWS V14.01,2013-11-19 18:40:00,
2013-11-19 13:42:00,75.4,41.8,29.76,East,90,3.4,3.8,30,0.00,,---,0.00,VWS V14.01,2013-11-19 18:42:00,
2013-11-19 13:45:00,75.2,41.7,29.76,East,90,2.0,4.3,30,0.00,,---,0.00,VWS V14.01,2013-11-19 18:45:00,
2013-11-19 13:47:00,75.2,40.8,29.76,East,90,2.9,3.6,29,0.00,,---,0.00,VWS V14.01,2013-11-19 18:47:00,
2013-11-19 13:50:00,75.2,41.7,29.76,ENE,68,2.5,3.6,30,0.00,,---,0.00,VWS V14.01,2013-11-19 18:50:00,
2013-11-19 13:52:00,75.2,41.7,29.76,East,90,2.5,2.5,30,0.00,,---,0.00,VWS V14.01,2013-11-19 18:52:00,
2013-11-19 13:55:00,75.2,41.7,29.76,East,90,3.1,3.1,30,0.00,,---,0.00,VWS V14.01,2013-11-19 18:55:00,
2013-11-19 13:57:00,74.8,41.4,29.76,East,90,2.5,4.3,30,0.00,,---,0.00,VWS V14.01,2013-11-19 18:57:00,
2013-11-19 14:00:00,75.0,42.4,29.76,NNE,22,2.0,4.3,31,0.00,,---,0.00,VWS V14.01,2013-11-19 19:00:00,
2013-11-19 14:02:00,75.0,42.4,29.76,West,270,1.6,2.2,31,0.00,,---,0.00,VWS V14.01,2013-11-19 19:02:00,
2013-11-19 14:05:00,76.1,43.3,29.76,West,270,1.1,4.0,31,0.00,,---,0.00,VWS V14.01,2013-11-19 19:05:00,
2013-11-19 14:07:00,76.5,43.6,29.76,East,90,1.6,2.2,31,0.00,,---,0.00,VWS V14.01,2013-11-19 19:07:00,
2013-11-19 14:10:00,76.8,43.9,29.74,ENE,68,1.1,2.7,31,0.00,,---,0.00,VWS V14.01,2013-11-19 19:10:00,
2013-11-19 14:12:00,76.8,43.1,29.74,ENE,68,2.5,3.8,30,0.00,,---,0.00,VWS V14.01,2013-11-19 19:12:00,
2013-11-19 14:15:00,76.3,43.5,29.74,ENE,68,1.6,4.7,31,0.00,,---,0.00,VWS V14.01,2013-11-19 19:15:00,
2013-11-19 14:17:00,76.5,43.6,29.74,ENE,68,0.0,3.1,31,0.00,,---,0.00,VWS V14.01,2013-11-19 19:17:00,
2013-11-19 14:20:00,76.5,43.6,29.74,ENE,68,3.4,3.4,31,0.00,,---,0.00,VWS V14.01,2013-11-19 19:20:00,
2013-11-19 14:22:00,76.6,43.8,29.74,ENE,68,1.3,3.4,31,0.00,,---,0.00,VWS V14.01,2013-11-19 19:22:00,
2013-11-19 14:25:00,76.6,43.8,29.76,East,90,3.6,3.6,31,0.00,,---,0.00,VWS V14.01,2013-11-19 19:25:00,
2013-11-19 14:30:00,76.6,43.8,29.76,ENE,68,2.7,4.3,31,0.00,,---,0.00,VWS V14.01,2013-11-19 19:30:00,
2013-11-19 14:35:00,76.8,43.9,29.76,WNW,292,1.1,2.7,31,0.00,,---,0.00,VWS V14.01,2013-11-19 19:35:00,
2013-11-19 14:40:00,77.0,44.1,29.74,SW,225,0.0,2.5,31,0.00,,---,0.00,VWS V14.01,2013-11-19 19:40:00,
2013-11-19 14:45:00,76.5,43.6,29.74,East,90,0.9,2.5,31,0.00,,---,0.00,VWS V14.01,2013-11-19 19:45:00,
2013-11-19 14:50:00,76.1,43.3,29.74,East,90,2.0,2.7,31,0.00,,---,0.00,VWS V14.01,2013-11-19 19:50:00,
2013-11-19 14:55:00,75.2,42.5,29.74,East,90,1.3,3.6,31,0.00,,---,0.00,VWS V14.01,2013-11-19 19:55:00,
2013-11-19 15:00:00,74.3,42.6,29.74,East,90,5.4,5.4,32,0.00,,---,0.00,VWS V14.01,2013-11-19 20:00:00,
2013-11-19 15:05:00,73.8,42.1,29.74,East,90,2.2,5.4,32,0.00,,---,0.00,VWS V14.01,2013-11-19 20:05:00,
2013-11-19 15:10:00,73.8,42.1,29.74,WSW,248,2.9,4.9,32,0.00,,---,0.00,VWS V14.01,2013-11-19 20:10:00,
2013-11-19 15:15:00,73.8,42.1,29.74,ENE,68,2.7,2.9,32,0.00,,---,0.00,VWS V14.01,2013-11-19 20:15:00,
2013-11-19 15:20:00,73.4,42.6,29.74,ENE,68,0.0,2.7,33,0.00,,---,0.00,VWS V14.01,2013-11-19 20:20:00,
2013-11-19 15:25:00,73.2,42.4,29.74,ENE,68,3.4,3.4,33,0.00,,---,0.00,VWS V14.01,2013-11-19 20:25:00,
2013-11-19 15:30:00,73.2,43.2,29.74,ENE,68,3.4,3.4,34,0.00,,---,0.00,VWS V14.01,2013-11-19 20:30:00,
2013-11-19 15:35:00,73.2,43.2,29.74,ENE,68,3.4,3.4,34,0.00,,---,0.00,VWS V14.01,2013-11-19 20:35:00,
2013-11-19 15:40:00,73.4,43.3,29.74,ENE,68,3.4,3.4,34,0.00,,---,0.00,VWS V14.01,2013-11-19 20:40:00,
2013-11-19 15:45:00,73.4,43.3,29.74,ENE,68,3.4,3.4,34,0.00,,---,0.00,VWS V14.01,2013-11-19 20:45:00,
2013-11-19 15:50:00,73.2,44.0,29.74,East,90,3.6,4.9,35,0.00,,---,0.00,VWS V14.01,2013-11-19 20:50:00,
2013-11-19 15:55:00,73.0,43.8,29.74,ENE,68,2.5,3.6,35,0.00,,---,0.00,VWS V14.01,2013-11-19 20:55:00,
2013-11-19 16:00:00,72.7,44.2,29.74,ENE,68,3.8,3.8,36,0.00,,---,0.00,VWS V14.01,2013-11-19 21:00:00,
2013-11-19 16:05:00,72.3,44.6,29.74,ENE,68,3.8,3.8,37,0.00,,---,0.00,VWS V14.01,2013-11-19 21:05:00,
2013-11-19 16:10:00,72.3,45.3,29.76,ENE,68,2.5,3.8,38,0.00,,---,0.00,VWS V14.01,2013-11-19 21:10:00,
2013-11-19 16:15:00,72.1,45.8,29.76,ENE,68,0.0,2.5,39,0.00,,---,0.00,VWS V14.01,2013-11-19 21:15:00,
2013-11-19 16:20:00,71.8,46.2,29.76,ENE,68,0.0,0.0,40,0.00,,---,0.00,VWS V14.01,2013-11-19 21:20:00,
2013-11-19 16:25:00,71.6,46.7,29.76,ENE,68,4.3,4.3,41,0.00,,---,0.00,VWS V14.01,2013-11-19 21:25:00,
2013-11-19 16:30:00,71.2,47.0,29.76,ENE,68,4.3,4.3,42,0.00,,---,0.00,VWS V14.01,2013-11-19 21:30:00,
2013-11-19 16:35:00,71.2,47.0,29.76,ENE,68,4.3,4.3,42,0.00,,---,0.00,VWS V14.01,2013-11-19 21:35:00,
2013-11-19 16:40:00,71.1,46.8,29.76,ENE,68,4.3,4.3,42,0.00,,---,0.00,VWS V14.01,2013-11-19 21:40:00,
2013-11-19 16:45:00,70.7,47.1,29.76,ENE,68,4.3,4.3,43,0.00,,---,0.00,VWS V14.01,2013-11-19 21:45:00,
2013-11-19 16:50:00,70.5,47.0,29.76,ENE,68,4.3,4.3,43,0.00,,---,0.00,VWS V14.01,2013-11-19 21:50:00,
2013-11-19 16:55:00,70.3,47.4,29.76,ENE,68,4.3,4.3,44,0.00,,---,0.00,VWS V14.01,2013-11-19 21:55:00,
2013-11-19 17:00:00,70.0,47.1,29.76,ENE,68,4.3,4.3,44,0.00,,---,0.00,VWS V14.01,2013-11-19 22:00:00,
2013-11-19 17:05:00,70.0,48.3,29.76,ENE,68,4.3,4.3,46,0.00,,---,0.00,VWS V14.01,2013-11-19 22:05:00,
2013-11-19 17:10:00,69.8,48.1,29.76,ENE,68,4.3,4.3,46,0.00,,---,0.00,VWS V14.01,2013-11-19 22:10:00,
2013-11-19 17:15:00,69.6,49.1,29.76,ENE,68,4.3,4.3,48,0.00,,---,0.00,VWS V14.01,2013-11-19 22:15:00,
2013-11-19 17:20:00,69.6,49.6,29.76,ENE,68,4.3,4.3,49,0.00,,---,0.00,VWS V14.01,2013-11-19 22:20:00,
2013-11-19 17:25:00,69.4,50.0,29.76,ENE,68,4.3,4.3,50,0.00,,---,0.00,VWS V14.01,2013-11-19 22:25:00,
2013-11-19 17:30:00,69.3,50.4,29.76,ENE,68,4.3,4.3,51,0.00,,---,0.00,VWS V14.01,2013-11-19 22:30:00,
2013-11-19 17:35:00,69.1,51.2,29.76,ENE,68,4.3,4.3,53,0.00,,---,0.00,VWS V14.01,2013-11-19 22:35:00,
2013-11-19 17:40:00,69.1,51.8,29.76,ENE,68,4.3,4.3,54,0.00,,---,0.00,VWS V14.01,2013-11-19 22:40:00,
2013-11-19 17:45:00,68.7,51.4,29.76,East,90,4.3,4.3,54,0.00,,---,0.00,VWS V14.01,2013-11-19 22:45:00,
2013-11-19 17:50:00,68.7,52.9,29.76,North,0,0.0,4.3,57,0.00,,---,0.00,VWS V14.01,2013-11-19 22:50:00,
2013-11-19 17:55:00,68.5,52.7,29.76,North,0,0.0,0.0,57,0.00,,---,0.00,VWS V14.01,2013-11-19 22:55:00,
2013-11-19 18:00:00,68.5,53.2,29.76,North,0,2.5,2.5,58,0.00,,---,0.00,VWS V14.01,2013-11-19 23:00:00,
2013-11-19 18:05:00,68.4,53.5,29.76,ENE,68,1.3,2.5,59,0.00,,---,0.00,VWS V14.01,2013-11-19 23:05:00,
2013-11-19 18:10:00,68.2,53.8,29.76,East,90,2.0,2.0,60,0.00,,---,0.00,VWS V14.01,2013-11-19 23:10:00,
2013-11-19 18:15:00,68.2,53.3,29.76,East,90,3.6,3.6,59,0.00,,---,0.00,VWS V14.01,2013-11-19 23:15:00,
2013-11-19 18:20:00,68.0,54.1,29.76,ENE,68,1.1,3.6,61,0.00,,---,0.00,VWS V14.01,2013-11-19 23:20:00,
2013-11-19 18:25:00,68.0,53.6,29.79,ENE,68,2.9,3.6,60,0.00,,---,0.00,VWS V14.01,2013-11-19 23:25:00,
2013-11-19 18:30:00,68.0,53.6,29.79,ENE,68,2.5,3.4,60,0.00,,---,0.00,VWS V14.01,2013-11-19 23:30:00,
2013-11-19 18:35:00,67.6,53.3,29.79,ENE,68,2.5,2.5,60,0.00,,---,0.00,VWS V14.01,2013-11-19 23:35:00,
2013-11-19 18:40:00,67.3,52.5,29.79,NNW,338,2.0,2.5,59,0.00,,---,0.00,VWS V14.01,2013-11-19 23:40:00,
2013-11-19 18:45:00,67.3,52.9,29.79,ESE,112,2.0,2.0,60,0.00,,---,0.00,VWS V14.01,2013-11-19 23:45:00,
2013-11-19 18:50:00,67.3,52.9,29.79,ESE,112,2.0,2.0,60,0.00,,---,0.00,VWS V14.01,2013-11-19 23:50:00,
2013-11-19 18:55:00,67.1,52.3,29.79,ESE,112,2.0,2.0,59,0.00,,---,0.00,VWS V14.01,2013-11-19 23:55:00,
2013-11-19 19:00:00,67.1,52.3,29.79,ESE,112,2.7,5.6,59,0.00,,---,0.00,VWS V14.01,2013-11-20 00:00:00,
2013-11-19 19:05:00,66.9,52.6,29.79,East,90,6.5,6.5,60,0.00,,---,0.00,VWS V14.01,2013-11-20 00:05:00,
2013-11-19 19:10:00,66.9,52.1,29.79,East,90,6.5,6.5,59,0.00,,---,0.00,VWS V14.01,2013-11-20 00:10:00,
2013-11-19 19:15:00,66.6,51.8,29.79,East,90,6.5,6.5,59,0.00,,---,0.00,VWS V14.01,2013-11-20 00:15:00,
2013-11-19 19:20:00,66.4,52.1,29.79,ENE,68,0.9,6.5,60,0.00,,---,0.00,VWS V14.01,2013-11-20 00:20:00,
2013-11-19 19:25:00,66.0,52.2,29.79,ENE,68,0.9,0.9,61,0.00,,---,0.00,VWS V14.01,2013-11-20 00:25:00,
2013-11-19 19:30:00,65.7,51.9,29.79,ENE,68,1.6,1.6,61,0.00,,---,0.00,VWS V14.01,2013-11-20 00:30:00,
2013-11-19 19:35:00,65.3,51.5,29.79,ENE,68,0.0,1.6,61,0.00,,---,0.00,VWS V14.01,2013-11-20 00:35:00,
2013-11-19 19:40:00,65.1,51.8,29.79,ENE,68,0.0,2.7,62,0.00,,---,0.00,VWS V14.01,2013-11-20 00:40:00,
2013-11-19 19:45:00,64.9,52.5,29.79,East,90,1.3,2.7,64,0.00,,---,0.00,VWS V14.01,2013-11-20 00:45:00,
2013-11-19 19:50:00,64.9,52.9,29.79,NE,45,3.1,3.1,65,0.00,,---,0.00,VWS V14.01,2013-11-20 00:50:00,
2013-11-19 19:55:00,64.8,52.7,29.79,South,180,0.9,3.1,65,0.00,,---,0.00,VWS V14.01,2013-11-20 00:55:00,
2013-11-19 20:00:00,64.8,53.2,29.79,WNW,292,1.3,3.8,66,0.00,,---,0.00,VWS V14.01,2013-11-20 01:00:00,
2013-11-19 20:05:00,64.6,53.0,29.79,SE,135,1.6,2.9,66,0.00,,---,0.00,VWS V14.01,2013-11-20 01:05:00,
2013-11-19 20:10:00,64.4,52.4,29.82,SE,135,1.6,1.6,65,0.00,,---,0.00,VWS V14.01,2013-11-20 01:10:00,
2013-11-19 20:15:00,64.2,52.2,29.82,East,90,1.6,1.6,65,0.00,,---,0.00,VWS V14.01,2013-11-20 01:15:00,
2013-11-19 20:20:00,64.2,52.6,29.82,ENE,68,0.9,3.1,66,0.00,,---,0.00,VWS V14.01,2013-11-20 01:20:00,
2013-11-19 20:25:00,64.0,52.5,29.79,SE,135,3.4,3.4,66,0.00,,---,0.00,VWS V14.01,2013-11-20 01:25:00,
2013-11-19 20:30:00,64.0,52.5,29.79,SE,135,3.4,3.4,66,0.00,,---,0.00,VWS V14.01,2013-11-20 01:30:00,
2013-11-19 20:35:00,63.9,52.3,29.79,East,90,3.1,3.4,66,0.00,,---,0.00,VWS V14.01,2013-11-20 01:35:00,
2013-11-19 20:40:00,63.9,52.3,29.82,East,90,3.1,3.1,66,0.00,,---,0.00,VWS V14.01,2013-11-20 01:40:00,
2013-11-19 20:45:00,63.7,52.1,29.82,ENE,68,2.2,5.8,66,0.00,,---,0.00,VWS V14.01,2013-11-20 01:45:00,
2013-11-19 20:50:00,63.5,52.4,29.82,ENE,68,4.3,6.3,67,0.00,,---,0.00,VWS V14.01,2013-11-20 01:50:00,
2013-11-19 20:55:00,63.5,52.4,29.82,North,0,0.9,4.3,67,0.00,,---,0.00,VWS V14.01,2013-11-20 01:55:00,
2013-11-19 21:00:00,63.3,52.2,29.82,East,90,1.6,1.6,67,0.00,,---,0.00,VWS V14.01,2013-11-20 02:00:00,
2013-11-19 21:05:00,63.1,52.0,29.82,East,90,1.1,1.6,67,0.00,,---,0.00,VWS V14.01,2013-11-20 02:05:00,
2013-11-19 21:10:00,63.0,52.2,29.82,ENE,68,1.6,2.0,68,0.00,,---,0.00,VWS V14.01,2013-11-20 02:10:00,
2013-11-19 21:15:00,63.0,52.6,29.82,East,90,1.1,1.6,69,0.00,,---,0.00,VWS V14.01,2013-11-20 02:15:00,
2013-11-19 21:20:00,62.8,52.5,29.82,East,90,1.6,1.6,69,0.00,,---,0.00,VWS V14.01,2013-11-20 02:20:00,
2013-11-19 21:25:00,62.6,52.3,29.82,East,90,4.3,4.3,69,0.00,,---,0.00,VWS V14.01,2013-11-20 02:25:00,
2013-11-19 21:30:00,62.6,52.3,29.82,West,270,1.6,4.3,69,0.00,,---,0.00,VWS V14.01,2013-11-20 02:30:00,
2013-11-19 21:35:00,62.6,52.3,29.82,South,180,0.9,1.6,69,0.00,,---,0.00,VWS V14.01,2013-11-20 02:35:00,
2013-11-19 21:40:00,62.6,53.1,29.82,ENE,68,2.7,2.7,71,0.00,,---,0.00,VWS V14.01,2013-11-20 02:40:00,
2013-11-19 21:45:00,62.6,53.1,29.82,SSE,158,1.1,2.7,71,0.00,,---,0.00,VWS V14.01,2013-11-20 02:45:00,
2013-11-19 21:50:00,62.4,52.9,29.82,ENE,68,0.0,1.1,71,0.00,,---,0.00,VWS V14.01,2013-11-20 02:50:00,
2013-11-19 21:55:00,62.2,52.7,29.82,ENE,68,0.0,0.0,71,0.00,,---,0.00,VWS V14.01,2013-11-20 02:55:00,
2013-11-19 22:00:00,62.2,52.7,29.82,West,270,1.3,1.3,71,0.00,,---,0.00,VWS V14.01,2013-11-20 03:00:00,
2013-11-19 22:05:00,62.2,52.7,29.82,SW,225,0.0,1.3,71,0.00,,---,0.00,VWS V14.01,2013-11-20 03:05:00,
2013-11-19 22:10:00,62.2,52.7,29.82,WNW,292,0.0,0.0,71,0.00,,---,0.00,VWS V14.01,2013-11-20 03:10:00,
2013-11-19 22:15:00,62.1,52.6,29.82,West,270,0.0,0.0,71,0.00,,---,0.00,VWS V14.01,2013-11-20 03:15:00,
2013-11-19 22:20:00,61.9,52.4,29.82,NNW,338,0.0,0.0,71,0.00,,---,0.00,VWS V14.01,2013-11-20 03:20:00,
2013-11-19 22:25:00,61.7,52.2,29.82,NW,315,0.0,0.0,71,0.00,,---,0.00,VWS V14.01,2013-11-20 03:25:00,
2013-11-19 22:30:00,61.7,52.2,29.82,SSW,202,0.0,0.0,71,0.00,,---,0.00,VWS V14.01,2013-11-20 03:30:00,
2013-11-19 22:35:00,61.7,52.6,29.82,NNE,22,1.3,1.3,72,0.00,,---,0.00,VWS V14.01,2013-11-20 03:35:00,
2013-11-19 22:40:00,61.7,52.6,29.82,WSW,248,3.1,3.1,72,0.00,,---,0.00,VWS V14.01,2013-11-20 03:40:00,
2013-11-19 22:45:00,61.7,53.0,29.82,East,90,0.0,3.1,73,0.00,,---,0.00,VWS V14.01,2013-11-20 03:45:00,
2013-11-19 22:50:00,61.5,52.8,29.82,East,90,0.0,0.9,73,0.00,,---,0.00,VWS V14.01,2013-11-20 03:50:00,
2013-11-19 22:55:00,61.3,52.6,29.82,East,90,0.0,0.0,73,0.00,,---,0.00,VWS V14.01,2013-11-20 03:55:00,
2013-11-19 23:00:00,61.3,52.6,29.82,SW,225,0.9,0.9,73,0.00,,---,0.00,VWS V14.01,2013-11-20 04:00:00,
2013-11-19 23:05:00,61.2,52.5,29.82,WNW,292,0.0,0.9,73,0.00,,---,0.00,VWS V14.01,2013-11-20 04:05:00,
2013-11-19 23:10:00,61.3,52.6,29.82,WSW,248,0.9,1.6,73,0.00,,---,0.00,VWS V14.01,2013-11-20 04:10:00,
2013-11-19 23:15:00,61.2,52.5,29.82,WNW,292,0.9,1.3,73,0.00,,---,0.00,VWS V14.01,2013-11-20 04:15:00,
2013-11-19 23:20:00,61.0,52.7,29.82,WNW,292,0.0,0.9,74,0.00,,---,0.00,VWS V14.01,2013-11-20 04:20:00,
2013-11-19 23:25:00,61.0,52.7,29.82,WNW,292,2.0,2.0,74,0.00,,---,0.00,VWS V14.01,2013-11-20 04:25:00,
2013-11-19 23:30:00,61.0,53.0,29.82,West,270,1.6,2.2,75,0.00,,---,0.00,VWS V14.01,2013-11-20 04:30:00,
2013-11-19 23:35:00,61.2,53.2,29.82,NNW,338,2.0,2.0,75,0.00,,---,0.00,VWS V14.01,2013-11-20 04:35:00,
2013-11-19 23:40:00,61.3,53.7,29.82,NW,315,1.3,2.0,76,0.00,,---,0.00,VWS V14.01,2013-11-20 04:40:00,
2013-11-19 23:45:00,61.5,53.9,29.82,NW,315,2.0,2.2,76,0.00,,---,0.00,VWS V14.01,2013-11-20 04:45:00,
2013-11-19 23:50:00,61.5,53.9,29.82,NW,315,1.3,2.0,76,0.00,,---,0.00,VWS V14.01,2013-11-20 04:50:00,
2013-11-19 23:55:00,61.5,53.9,29.82,NW,315,1.3,2.7,76,0.00,,---,0.00,VWS V14.01,2013-11-20 04:55:00,